SCP
0 0 0 0 0 0 0 0 0 0 0 0 0 0 0 0 0 0 0 0 0 0 0 0 0 0 0 0 0 0 0 0 0 0 0 0 0 0 0 0 0 0 0 0 0 0 0 0 0 0 0 0 0 0
0 0 0 0 0 0 0 0 0 0 0 0 0 0 0 0 0 0 0 0 0 0 0 0 0 0 0 0 0 0 0 0 0 0 0 0 0 0 0 0 0 0 0 0 0 0 0 0 0 0 0 0 0 0
0 0 0 0 0 0 0 0 0 0 0 0 0 0 0 0 0 0 0 0 0 0 0 0 0 0 0 0 0 0 0 0 0 0 0 0 0 0 0 0 0 0 -0 0 0 0 0 0 0 0 0 0 0 0
0 0 0 0 0 0 0 0 0 0 0 0 0 0 0 0 0 0 0 0 0 0 0 0 0 0 0 0 0 0 0 0 0 0 0 0 0 0 0 0 0 0 0 0 0 0 0 0 0 0 0 0 0 0
0 0 0 0 0 0 -0 0 0 0 0 0 0 0 0 0 0 0 0 0 0 0 0 0 0 0 0 0 0 0 0 0 0 0 0 0 0 0 0 0 0 0 0 0 0 0 0 0 0 0 0 0 0 -0
0 0 0 0 0 0 0 0 0 0 0 0 0 0 0 0 0 0 0 0 0 0 0 0 0 0 0 0 0 0 0 0 0 0 0 0 0 0 0 0 0 0 0 0 0 0 0 0 0 0 0 0 0 -0
0 0 0 0 0 0 0 0 0 0 -0 0 0 0 0 0 0 0 0 0 0 0 0 0 0 0 0 0 0 0 0 0 0 0 0 0 0 0 0 0 0 0 0 0 0 0 0 0 0 0 0 0 0 0
0 0 0 0 0 0 -0 0 0 0 -0 0 0 0 0 0 0 0 0 0 0 0 0 0 0 0 0 0 0 0 0 0 0 0 0 0 0 0 0 0 0 0 0 0 0 0 0 0 0 0 0 0 0 0
0 0 0 0 0 -0 -0 0 0 -0 0 0 0 0 0 0 0 0 0 0 0 0 0 0 0 0 0 0 0 0 0 0 0 0 0 0 0 0 0 0 0 0 0 0 0 0 0 0 0 0 0 0 0 0
0 0 -0 -0 -0 -0 -0 0 -0 -0 0 0 0 0 0 0 0 0 0 0 0 0 0 0 0 0 0 0 0 0 0 0 0 0 0 0 0 0 0 0 0 0 0 0 0 0 0 0 0 0 0 0 0 0
0 0 -0 -0 -0 -0 -0 0 -0 -0 0 0 0 0 0 0 0 0 0 0 0 0 0 0 0 0 0 0 0 0 0 0 0 0 0 0 0 0 0 0 0 0 0 0 0 0 0 0 0 0 0 0 0 0
-0 -0 -0 -0 -0 -0 -0 -0 -0 0 0 0 0 0 0 0 0 0 0 0 0 0 0 0 0 0 0 0 0 0 0 0 0 0 0 0 0 0 -0 0 0 0 0 0 0 0 0 0 0 0 0 0 -0 -0
-0 -0 -0 -0 -0 -0 -0 -0 -0 0 0 0 0 0 0 0 0 0 0 0 0 0 0 0 0 0 0 0 0 0 0 0 0 0 -0 -0 0 -0 -0 0 0 0 0 0 0 0 0 0 0 0 0 0 0 0
-0 -0 -0 -0 -0 0 -0 0 0 0 0 0 0 0 0 0 0 0 0 0 0 0 -0 0 0 0 0 0 0 0 0 0 0 0 -0 0 -0 -0 -0 0 0 0 0 0 0 0 0 0 0 0 -0 0 0 0
-0 -0 -0 -0 0 0 0 0 -0 0 0 0 0 0 0 0 0 0 0 0 0 -0 -0 -0 0 0 0 0 0 0 0 0 0 0 0 -0 -0 -0 -0 -0 0 0 0 0 0 0 0 0 0 0 0 0 0 0
-0 -0 0 0 0 0 0 -0 0 0 0 0 0 0 0 0 0 0 0 0 0 0 -0 0 0 -0 0 0 0 0 0 0 0 0 0 -0 -0 -0 -0 -0 -0 0 0 0 0 0 0 0 0 0 0 0 0 0
-0 0 -0 0 0 -0 0 0 0 0 0 0 0 0 0 0 0 0 0 0 0 0 -0 -0 -0 0 -0 0 0 0 0 0 0 0 0 0 -0 -0 -0 -0 -0 0 0 0 0 0 0 0 0 0 0 0 0 0
0 -0 -0 -0 0 0 0 0 0 0 0 0 0 0 0 0 0 0 0 0 0 0 0 -0 -0 -0 -0 -0 0 0 0 0 0 0 0 -0 -0 -0 -0 -0 -0 -0 0 0 -0 -0 -0 -0 0 0 0 0 0 0
-0 -0 -0 -0 0 0 0 0 0 0 0 0 0 0 0 0 0 0 0 0 0 0 -0 -0 0 0 0 0 -0 0 0 0 0 0 0 -0 -0 -0 0 0 0 0 0 0 0 0 0 -0 -0 0 0 0 0 0
-0 -0 -0 0 0 0 0 0 0 0 0 0 0 0 0 0 0 0 0 0 0 -0 -0 0 0 -0 -0 0 0 -0 0 -0 -0 -0 0 0 0 0 0 0 0 0 0 -0 -0 -0 -0 -0 -0 0 0 0 0 0
-0 0 0 0 0 0 0 0 0 0 0 0 0 0 0 0 0 0 -0 0 0 -0 0 0 0 0 0 0 -0 -0 -0 -0 0 0 0 0 0 0 0 0 0 0 -0 -0 -0 -0 -0 -0 0 0 0 0 0 0
0 0 0 0 0 0 0 0 0 0 0 0 0 0 0 0 0 0 0 0 0 -0 0 0 0 0 0 0 -0 -0 -0 -0 0 0 0 0 0 0 0 0 -0 -0 -0 -0 -0 -0 -0 0 0 0 0 0 0 0
0 0 0 0 0 0 0 0 0 0 0 0 0 0 0 0 0 0 0 -0 -0 -0 -0 0 0 0 0 0 0 0 -0 -0 0 0 0 0 0 0 0 -0 -0 -0 -0 0 0 0 0 0 0 0 0 0 0 0
0 0 0 0 0 0 0 0 0 0 0 0 0 0 0 0 -0 0 -0 -0 -0 -0 0 -0 0 0 0 0 0 0 0 0 0 0 0 0 0 0 0 -0 -0 0 0 0 0 0 0 0 0 0 0 0 0 0
0 0 0 0 0 0 0 0 0 0 0 0 0 0 -0 -0 -0 -0 -0 -0 -0 -0 0 -0 0 0 -0 0 0 0 0 0 0 0 0 0 0 0 0 0 0 0 0 -0 0 0 0 0 0 0 0 0 0 0
0 0 0 0 0 0 0 0 0 0 0 0 0 0 0 -0 -0 0 0 -0 -0 -0 -0 -0 0 -0 0 0 0 0 0 0 0 0 0 0 0 -0 0 0 0 0 0 0 -0 0 0 0 0 0 0 0 0 0
0 0 0 0 0 0 0 0 0 0 0 0 0 0 -0 0 -0 -0 -0 0 -0 -0 0 0 0 -0 0 0 -0 -0 0 0 0 0 0 0 0 0 0 0 -0 0 0 0 0 0 0 0 0 0 0 0 0 0
0 0 0 0 0 0 0 0 0 0 0 0 0 0 -0 -0 -0 -0 -0 0 0 0 0 0 0 0 0 -0 -0 -0 -0 -0 -0 -0 -0 -0 0 0 0 0 0 -0 0 0 0 0 0 0 0 0 0 0 0 0
0 0 0 0 0 0 0 0 0 0 -0 0 0 0 -0 -0 -0 -0 0 0 0 0 0 0 0 0 -0 -0 0 -0 -0 -0 -0 -0 -0 0 0 0 0 0 0 0 0 0 0 0 0 0 0 0 0 0 0 0
0 0 0 0 0 0 0 0 0 0 -0 -0 -0 -0 -0 -0 -0 0 0 0 0 0 0 0 0 0 0 -0 -0 0 0 0 0 -0 -0 -0 -0 -0 0 0 0 0 0 0 0 0 0 0 0 0 0 0 0 0
0 0 0 0 0 0 0 0 0 0 0 -0 -0 -0 -0 -0 -0 0 0 0 0 0 0 0 0 0 0 0 0 0 0 0 0 0 -0 -0 -0 0 0 0 0 0 0 0 0 0 0 0 0 0 0 0 0 0
0 0 0 0 0 0 0 0 0 -0 -0 -0 -0 -0 0 -0 -0 0 0 0 0 0 0 0 0 0 0 0 -0 0 0 0 0 -0 -0 -0 0 0 0 0 0 0 0 0 0 0 0 0 0 0 0 0 0 0
0 0 0 0 0 0 0 0 0 -0 -0 -0 -0 -0 0 0 -0 0 0 0 -0 -0 0 0 0 -0 -0 0 0 0 0 0 -0 -0 -0 -0 0 0 0 0 0 0 0 0 0 0 0 0 0 0 0 0 0 0
Wind_Speed_500mb
43 44 40 37 37 40 42 41 37 35 25 23 20 24 20 20 20 23 29 23 33 9 21 25 24 11 6 6 6 6 2 5 5 3 2 3 4 3 1 3 6 9 12 6 7 7 13 8 13 8 9 14 11 10
38 45 39 35 36 38 38 41 39 35 30 26 22 19 20 20 18 19 26 16 27 19 11 11 15 22 24 15 10 6 7 4 4 4 1 1 2 3 1 3 6 5 9 8 10 7 2 7 12 16 14 16 10 10
36 44 46 39 34 39 35 38 40 36 29 28 29 28 24 18 18 21 23 17 22 5 22 28 5 3 7 22 32 10 6 9 8 7 4 2 4 2 3 5 5 15 19 5 5 4 4 8 7 8 12 15 14 14
39 45 47 48 39 36 35 34 38 38 33 27 29 25 22 19 20 18 14 12 18 4 3 4 7 7 6 2 26 25 8 16 15 8 4 2 4 5 4 4 4 8 3 8 4 11 9 15 18 21 20 19 17 13
43 44 47 52 50 40 38 36 37 37 35 31 24 19 19 24 17 17 16 18 13 9 2 13 13 5 21 13 20 18 18 17 10 6 4 5 7 1 6 2 7 9 10 8 9 28 11 11 14 25 25 21 13 10
43 41 47 51 51 47 42 36 38 36 32 28 23 20 19 18 13 17 8 20 28 18 4 4 4 6 18 20 18 15 14 6 7 7 5 8 10 3 5 5 11 12 11 19 13 47 30 14 28 27 24 16 11 12
40 43 47 48 45 46 39 36 37 32 32 25 24 23 23 19 8 12 6 6 14 25 4 3 5 4 26 27 20 17 17 7 6 4 6 6 6 4 4 5 12 11 12 19 29 40 29 36 28 25 16 15 17 17
44 44 46 39 46 46 39 28 25 24 26 22 20 20 22 19 18 20 22 19 16 13 9 3 5 7 21 8 7 7 6 6 7 5 6 6 4 14 9 22 19 17 15 15 29 27 34 38 35 23 16 22 23 18
46 47 45 44 47 38 22 21 24 23 23 22 21 15 11 13 10 9 13 23 26 7 5 5 6 6 17 6 7 7 7 3 6 6 6 8 5 9 14 23 23 33 20 29 40 45 47 39 31 22 25 23 23 20
46 46 47 43 38 35 25 25 25 20 21 11 13 10 8 10 9 33 20 9 13 7 6 4 4 4 11 9 6 8 8 4 4 8 9 7 7 31 26 16 13 20 27 47 54 39 42 37 30 26 26 24 19 14
47 51 47 38 35 31 26 21 23 16 14 13 10 8 11 40 25 7 5 5 6 3 9 8 15 6 5 4 3 10 2 2 4 4 6 5 6 10 38 37 38 26 39 37 30 37 28 27 30 33 29 21 16 15
51 48 43 25 29 30 20 16 16 16 8 10 11 14 21 6 4 5 5 6 7 7 12 12 11 8 7 8 4 6 4 5 8 13 6 5 5 22 46 44 39 41 38 34 33 37 33 28 31 29 25 23 23 22
46 44 30 23 22 15 12 14 13 9 8 15 8 8 7 5 5 7 10 5 5 10 17 14 6 12 7 6 4 3 6 8 4 5 5 5 12 35 45 44 50 46 40 41 38 34 29 33 27 22 21 17 17 18
44 34 28 25 10 10 10 13 11 25 4 4 6 7 5 6 6 7 6 6 8 9 30 34 11 7 6 4 2 6 8 4 7 6 7 5 30 41 44 57 52 48 42 40 35 33 32 31 27 20 14 14 12 14
38 27 17 11 4 2 9 17 29 27 3 1 2 4 7 10 10 6 5 14 9 29 35 18 10 6 3 3 6 5 6 8 6 6 4 28 46 48 58 50 50 48 46 43 38 35 30 27 26 25 19 14 11 13
27 24 34 7 4 7 15 24 19 7 3 3 4 5 8 5 8 4 9 11 22 30 20 10 5 5 7 6 8 11 6 5 5 4 25 48 56 54 54 55 49 46 44 43 37 32 26 25 29 24 21 16 13 11
17 17 31 10 10 12 20 19 5 1 4 4 4 11 18 13 10 3 10 17 24 28 4 5 7 8 5 6 6 6 6 3 12 29 46 43 56 60 57 54 47 43 44 40 36 29 26 23 26 23 18 17 13 13
12 15 16 7 6 8 8 6 3 3 5 7 6 4 10 16 3 6 10 20 21 10 8 4 1 4 4 5 3 4 7 18 35 45 46 52 56 60 57 51 39 43 41 37 33 30 24 17 21 22 16 14 14 11
11 6 1 1 7 4 2 2 2 5 8 10 14 13 9 2 7 6 10 22 14 9 4 5 6 5 3 2 5 3 29 39 44 47 50 55 54 49 46 41 39 39 37 34 31 28 23 17 17 18 15 9 12 13
7 7 7 6 10 2 3 3 4 6 7 6 10 12 4 4 8 12 13 21 13 6 6 4 6 3 7 15 12 23 40 56 61 51 43 40 40 47 48 43 41 38 35 33 30 26 24 23 20 16 10 9 11 14
4 2 7 11 7 5 5 4 6 8 9 9 14 6 2 5 8 14 14 17 10 6 5 12 7 16 5 10 12 29 45 55 62 59 57 56 53 45 42 37 35 38 36 33 29 31 23 16 16 10 6 10 12 12
3 2 11 14 4 5 7 8 9 10 6 8 8 5 3 3 7 12 11 13 8 12 11 4 4 6 12 8 13 33 40 43 43 46 45 41 46 43 38 35 34 38 40 29 21 24 21 14 10 7 6 11 8 10
6 6 3 5 5 6 7 7 6 5 4 4 5 4 3 2 1 12 5 9 10 13 14 13 7 14 7 11 23 34 36 39 41 40 35 37 38 38 36 34 40 37 34 27 18 21 20 14 7 4 8 7 3 5
4 3 4 5 9 6 5 5 6 6 5 3 1 3 4 2 7 2 4 6 9 10 15 18 10 25 10 18 37 43 41 36 41 39 39 37 33 30 31 31 33 35 32 28 26 22 18 12 8 5 4 3 4 6
4 5 5 6 7 5 4 3 2 2 4 1 4 4 5 6 2 3 4 6 5 8 13 23 29 10 22 37 47 52 42 43 48 46 40 38 36 36 45 38 37 35 28 28 28 21 17 14 10 6 4 5 8 8
6 8 9 5 4 4 1 2 3 3 5 4 3 5 7 2 3 3 1 9 5 13 28 28 10 16 33 40 45 47 47 48 45 41 39 38 36 41 47 45 43 39 28 17 13 15 15 13 10 6 2 3 8 13
5 7 10 9 5 3 5 7 13 6 6 4 2 2 2 3 6 4 3 5 2 12 27 33 7 26 42 46 48 46 44 44 43 46 50 47 32 23 20 30 32 24 28 20 12 8 9 11 10 6 3 2 4 11
10 8 6 8 8 9 3 2 5 4 1 8 4 2 6 3 3 2 3 1 1 22 29 20 14 20 47 45 47 48 53 51 44 43 41 37 32 25 23 22 19 17 16 15 12 10 8 7 7 5 4 6 7 10
9 9 10 6 6 5 7 4 5 7 2 7 2 2 5 5 5 2 2 2 10 10 20 32 18 16 44 57 56 47 44 44 45 44 43 41 38 34 31 26 21 17 16 18 15 10 7 5 4 1 4 7 8 10
8 10 6 8 5 3 3 9 4 3 7 6 1 4 7 13 12 8 6 8 8 10 22 31 42 24 51 57 59 53 32 21 22 21 36 38 37 39 37 29 21 18 17 17 16 16 13 8 3 3 6 7 8 9
7 13 7 5 3 4 6 3 6 10 8 7 7 8 9 6 6 11 10 10 9 16 25 28 42 53 49 49 50 38 33 31 27 16 12 19 30 35 32 26 22 20 17 15 14 12 8 2 4 6 5 6 7 7
8 9 7 4 4 8 8 6 6 6 7 7 4 7 6 5 6 9 15 16 17 20 20 36 49 42 44 51 46 36 27 30 28 22 20 22 27 28 26 25 22 16 11 8 5 4 4 7 7 7 7 7 6 7
6 7 6 7 4 3 2 3 6 6 7 7 9 10 7 6 8 8 12 21 33 26 15 24 28 38 41 39 33 24 25 30 27 22 17 16 17 19 17 17 16 12 10 8 8 8 8 8 8 7 7 8 8 8
Wind_Direction_500mb
319 322 324 323 324 329 329 329 325 322 304 311 295 287 301 289 257 266 273 260 231 236 264 268 279 236 205 189 162 210 92 7 64 111 148 241 236 353 318 226 179 162 174 170 184 220 254 121 108 181 160 142 161 133
315 317 318 319 314 316 327 329 325 323 317 295 285 286 277 277 277 265 263 251 233 241 255 258 244 255 250 236 228 203 144 118 128 111 330 83 317 317 245 292 119 213 185 162 195 219 288 36 118 124 137 148 142 152
312 310 315 310 310 306 311 317 318 320 313 299 295 282 288 270 266 261 281 253 241 252 271 273 284 162 282 241 223 171 171 143 122 101 111 74 275 304 237 241 305 201 216 186 139 175 99 67 76 137 158 143 143 130
306 307 314 312 302 297 300 302 309 314 313 294 284 282 274 267 261 261 267 273 194 190 335 263 130 153 178 200 203 209 200 155 143 142 106 191 243 185 271 301 198 223 227 151 194 156 156 218 246 159 142 144 133 104
307 303 312 312 313 294 285 286 300 306 307 301 285 282 270 258 249 260 257 246 205 210 258 298 298 336 218 169 176 196 180 146 133 121 137 226 245 228 243 322 248 209 190 156 210 169 187 217 182 166 155 149 131 100
312 308 310 310 311 306 292 275 283 298 299 297 277 263 265 252 249 239 259 246 223 207 272 313 294 358 175 191 187 180 190 167 146 159 208 257 235 149 267 246 255 246 209 190 182 185 190 162 156 163 150 141 137 127
313 315 311 309 313 313 299 278 275 288 295 290 277 261 259 242 208 206 241 287 205 192 213 294 290 112 171 161 167 179 189 155 150 183 226 254 276 139 279 233 240 193 138 125 158 163 128 144 147 146 133 132 134 118
318 315 314 307 308 307 303 277 272 285 290 282 279 268 266 233 235 241 254 259 176 160 177 221 261 159 172 141 122 139 131 169 194 218 215 231 263 196 243 232 238 212 165 139 168 176 163 145 140 127 115 138 131 110
317 315 316 310 310 324 306 273 279 277 277 275 253 259 210 188 211 218 235 171 172 158 203 204 186 213 172 126 124 151 173 199 213 217 229 177 230 222 228 240 237 209 197 149 144 139 140 140 130 116 126 120 111 100
317 312 309 307 305 314 307 276 277 281 280 258 191 197 206 168 179 151 151 165 189 226 221 237 199 162 171 142 147 158 181 221 227 215 188 210 254 245 248 221 153 160 149 157 137 134 144 137 128 118 119 109 99 92
313 312 314 301 302 306 285 272 259 292 186 204 192 194 141 149 155 167 122 161 164 239 212 222 197 127 144 129 130 204 184 261 242 206 200 227 260 234 214 182 171 166 174 163 168 160 158 145 132 124 113 101 95 78
314 316 316 310 313 306 282 266 271 187 201 187 165 114 145 174 158 180 175 171 202 230 187 166 187 136 117 132 137 171 254 195 258 159 222 248 260 158 157 151 148 166 156 145 145 141 136 130 131 128 122 105 89 78
319 320 308 317 318 298 250 235 226 190 205 180 172 132 152 166 201 215 178 199 222 193 164 151 115 142 133 160 134 191 231 243 281 214 235 251 157 147 148 159 157 148 144 136 133 130 130 134 129 128 138 124 98 84
327 321 309 305 313 303 227 197 166 178 159 190 159 143 224 176 235 210 197 199 190 161 153 145 107 120 121 136 168 238 228 276 228 225 223 168 155 150 151 152 146 145 145 138 133 132 128 125 126 128 116 124 138 111
328 334 341 342 291 175 158 175 174 189 257 228 191 209 213 249 262 299 257 136 114 150 140 101 84 104 115 221 196 244 246 232 247 225 184 153 155 160 153 152 148 148 147 142 140 139 140 140 128 116 105 103 114 132
346 19 19 330 323 198 151 168 168 179 265 265 243 283 279 244 322 182 173 136 144 146 121 120 133 181 197 204 207 217 247 244 224 190 149 159 154 159 160 153 153 150 148 145 143 140 138 136 149 127 105 94 91 111
19 6 31 44 91 113 153 134 131 234 285 268 259 269 274 282 269 337 176 168 172 149 171 152 202 213 168 221 221 221 224 228 154 138 145 154 162 157 156 150 146 148 148 146 141 138 133 129 149 152 115 93 92 100
317 355 34 76 126 153 175 176 354 301 272 265 261 302 234 264 232 170 163 177 159 165 156 243 297 211 232 237 217 252 79 117 140 147 156 156 153 154 153 153 155 154 148 145 143 138 137 142 138 140 120 107 102 90
277 281 318 146 192 222 256 258 282 286 270 287 283 290 267 315 217 176 167 173 186 185 231 241 250 235 269 333 284 172 139 131 123 133 142 149 148 150 151 149 150 149 149 149 147 142 139 131 120 137 136 111 89 90
260 245 206 209 197 257 318 266 237 265 271 294 282 282 263 251 181 173 170 179 195 178 229 240 234 339 257 293 247 182 156 149 145 138 145 157 160 156 151 147 144 147 152 155 155 160 155 138 129 144 128 87 83 88
69 68 184 185 217 259 263 266 261 247 283 292 294 281 8 192 171 177 187 190 203 222 236 238 270 305 302 164 180 176 165 164 158 157 160 158 155 152 153 154 154 167 166 160 153 158 158 134 129 148 134 104 91 74
91 169 172 202 232 256 264 229 258 290 248 250 289 276 225 203 193 199 189 192 233 243 227 227 185 168 129 136 168 179 174 173 167 158 155 154 157 159 161 164 165 164 169 169 162 161 153 134 128 153 135 119 96 67
155 195 177 202 240 243 264 231 252 255 259 332 334 328 275 219 179 155 235 225 250 256 248 226 209 180 190 229 178 181 177 173 165 163 163 159 155 154 157 164 168 168 166 161 168 159 149 142 134 157 147 126 55 29
169 226 234 230 221 266 249 226 233 260 276 220 259 285 333 335 169 236 253 251 257 258 226 206 204 175 205 171 172 173 172 173 168 165 167 166 171 175 182 188 190 191 188 175 168 160 154 153 138 139 150 103 61 24
269 233 230 267 230 250 253 187 309 281 254 207 245 181 197 178 200 227 244 283 319 200 185 193 177 218 189 182 180 175 175 180 176 173 172 178 180 174 163 168 169 175 177 172 171 173 171 166 157 141 109 39 16 7
253 218 202 234 232 199 223 245 230 254 278 275 268 119 161 211 236 232 269 281 274 185 164 160 196 194 183 182 178 180 186 190 186 184 181 186 183 176 172 170 169 173 183 206 200 189 184 187 186 173 161 20 4 352
260 267 229 233 255 262 233 229 241 223 244 242 223 138 164 236 240 213 305 351 229 204 194 186 187 189 173 169 172 174 178 182 183 177 173 173 178 183 195 192 187 186 185 200 221 230 221 210 204 205 247 278 336 348
251 278 211 197 209 229 147 275 256 236 13 8 336 224 308 303 248 278 345 254 244 168 183 210 236 207 186 185 183 180 174 176 179 174 168 171 173 176 179 182 178 175 182 202 221 224 224 227 217 217 282 318 336 343
247 249 224 252 207 217 218 263 356 57 184 169 227 261 264 300 284 233 227 163 207 224 214 191 201 178 184 180 180 183 185 183 177 174 180 181 181 179 181 185 184 181 193 197 194 202 197 191 197 243 323 321 333 344
250 214 215 188 183 220 32 4 38 109 48 33 300 242 293 314 275 254 244 218 223 243 209 194 188 181 180 180 174 172 168 190 205 204 198 200 203 192 186 188 196 200 195 194 192 178 173 173 168 337 332 329 332 336
272 188 172 167 192 165 168 139 285 295 303 328 286 281 296 293 289 240 242 236 238 202 200 192 182 179 182 175 174 171 192 210 199 191 206 207 194 187 187 189 189 182 174 172 164 156 155 166 316 313 311 315 319 321
211 188 185 146 196 182 187 227 264 269 294 332 305 287 255 242 282 236 228 236 217 170 153 177 179 176 180 176 185 201 204 194 184 176 158 152 160 171 178 178 176 174 172 172 179 202 240 290 304 306 303 309 321 331
119 120 121 121 135 184 232 281 329 296 270 265 274 265 249 226 252 229 230 195 173 181 208 208 191 167 181 191 199 198 202 195 186 182 183 181 171 168 171 177 182 188 194 211 221 235 256 275 289 303 316 321 320 324
Wind_Speed_850mb
43 44 40 37 37 40 42 41 37 35 25 23 20 24 20 20 20 23 29 23 33 9 21 25 24 11 6 6 6 6 2 5 5 3 2 3 4 3 1 3 6 9 12 6 7 7 13 8 13 8 9 14 11 10
38 45 39 35 36 38 38 41 39 35 30 26 22 19 20 20 18 19 26 16 27 19 11 11 15 22 24 15 10 6 7 4 4 4 1 1 2 3 1 3 6 5 9 8 10 7 2 7 12 16 14 16 10 10
36 44 46 39 34 39 35 38 40 36 29 28 29 28 24 18 18 21 23 17 22 5 22 28 5 3 7 22 32 10 6 9 8 7 4 2 4 2 3 5 5 15 19 5 5 4 4 8 7 8 12 15 14 14
39 45 47 48 39 36 35 34 38 38 33 27 29 25 22 19 20 18 14 12 18 4 3 4 7 7 6 2 26 25 8 16 15 8 4 2 4 5 4 4 4 8 3 8 4 11 9 15 18 21 20 19 17 13
43 44 47 52 50 40 38 36 37 37 35 31 24 19 19 24 17 17 16 18 13 9 2 13 13 5 21 13 20 18 18 17 10 6 4 5 7 1 6 2 7 9 10 8 9 28 11 11 14 25 25 21 13 10
43 41 47 51 51 47 42 36 38 36 32 28 23 20 19 18 13 17 8 20 28 18 4 4 4 6 18 20 18 15 14 6 7 7 5 8 10 3 5 5 11 12 11 19 13 47 30 14 28 27 24 16 11 12
40 43 47 48 45 46 39 36 37 32 32 25 24 23 23 19 8 12 6 6 14 25 4 3 5 4 26 27 20 17 17 7 6 4 6 6 6 4 4 5 12 11 12 19 29 40 29 36 28 25 16 15 17 17
44 44 46 39 46 46 39 28 25 24 26 22 20 20 22 19 18 20 22 19 16 13 9 3 5 7 21 8 7 7 6 6 7 5 6 6 4 14 9 22 19 17 15 15 29 27 34 38 35 23 16 22 23 18
46 47 45 44 47 38 22 21 24 23 23 22 21 15 11 13 10 9 13 23 26 7 5 5 6 6 17 6 7 7 7 3 6 6 6 8 5 9 14 23 23 33 20 29 40 45 47 39 31 22 25 23 23 20
46 46 47 43 38 35 25 25 25 20 21 11 13 10 8 10 9 33 20 9 13 7 6 4 4 4 11 9 6 8 8 4 4 8 9 7 7 31 26 16 13 20 27 47 54 39 42 37 30 26 26 24 19 14
47 51 47 38 35 31 26 21 23 16 14 13 10 8 11 40 25 7 5 5 6 3 9 8 15 6 5 4 3 10 2 2 4 4 6 5 6 10 38 37 38 26 39 37 30 37 28 27 30 33 29 21 16 15
51 48 43 25 29 30 20 16 16 16 8 10 11 14 21 6 4 5 5 6 7 7 12 12 11 8 7 8 4 6 4 5 8 13 6 5 5 22 46 44 39 41 38 34 33 37 33 28 31 29 25 23 23 22
46 44 30 23 22 15 12 14 13 9 8 15 8 8 7 5 5 7 10 5 5 10 17 14 6 12 7 6 4 3 6 8 4 5 5 5 12 35 45 44 50 46 40 41 38 34 29 33 27 22 21 17 17 18
44 34 28 25 10 10 10 13 11 25 4 4 6 7 5 6 6 7 6 6 8 9 30 34 11 7 6 4 2 6 8 4 7 6 7 5 30 41 44 57 52 48 42 40 35 33 32 31 27 20 14 14 12 14
38 27 17 11 4 2 9 17 29 27 3 1 2 4 7 10 10 6 5 14 9 29 35 18 10 6 3 3 6 5 6 8 6 6 4 28 46 48 58 50 50 48 46 43 38 35 30 27 26 25 19 14 11 13
27 24 34 7 4 7 15 24 19 7 3 3 4 5 8 5 8 4 9 11 22 30 20 10 5 5 7 6 8 11 6 5 5 4 25 48 56 54 54 55 49 46 44 43 37 32 26 25 29 24 21 16 13 11
17 17 31 10 10 12 20 19 5 1 4 4 4 11 18 13 10 3 10 17 24 28 4 5 7 8 5 6 6 6 6 3 12 29 46 43 56 60 57 54 47 43 44 40 36 29 26 23 26 23 18 17 13 13
12 15 16 7 6 8 8 6 3 3 5 7 6 4 10 16 3 6 10 20 21 10 8 4 1 4 4 5 3 4 7 18 35 45 46 52 56 60 57 51 39 43 41 37 33 30 24 17 21 22 16 14 14 11
11 6 1 1 7 4 2 2 2 5 8 10 14 13 9 2 7 6 10 22 14 9 4 5 6 5 3 2 5 3 29 39 44 47 50 55 54 49 46 41 39 39 37 34 31 28 23 17 17 18 15 9 12 13
7 7 7 6 10 2 3 3 4 6 7 6 10 12 4 4 8 12 13 21 13 6 6 4 6 3 7 15 12 23 40 56 61 51 43 40 40 47 48 43 41 38 35 33 30 26 24 23 20 16 10 9 11 14
4 2 7 11 7 5 5 4 6 8 9 9 14 6 2 5 8 14 14 17 10 6 5 12 7 16 5 10 12 29 45 55 62 59 57 56 53 45 42 37 35 38 36 33 29 31 23 16 16 10 6 10 12 12
3 2 11 14 4 5 7 8 9 10 6 8 8 5 3 3 7 12 11 13 8 12 11 4 4 6 12 8 13 33 40 43 43 46 45 41 46 43 38 35 34 38 40 29 21 24 21 14 10 7 6 11 8 10
6 6 3 5 5 6 7 7 6 5 4 4 5 4 3 2 1 12 5 9 10 13 14 13 7 14 7 11 23 34 36 39 41 40 35 37 38 38 36 34 40 37 34 27 18 21 20 14 7 4 8 7 3 5
4 3 4 5 9 6 5 5 6 6 5 3 1 3 4 2 7 2 4 6 9 10 15 18 10 25 10 18 37 43 41 36 41 39 39 37 33 30 31 31 33 35 32 28 26 22 18 12 8 5 4 3 4 6
4 5 5 6 7 5 4 3 2 2 4 1 4 4 5 6 2 3 4 6 5 8 13 23 29 10 22 37 47 52 42 43 48 46 40 38 36 36 45 38 37 35 28 28 28 21 17 14 10 6 4 5 8 8
6 8 9 5 4 4 1 2 3 3 5 4 3 5 7 2 3 3 1 9 5 13 28 28 10 16 33 40 45 47 47 48 45 41 39 38 36 41 47 45 43 39 28 17 13 15 15 13 10 6 2 3 8 13
5 7 10 9 5 3 5 7 13 6 6 4 2 2 2 3 6 4 3 5 2 12 27 33 7 26 42 46 48 46 44 44 43 46 50 47 32 23 20 30 32 24 28 20 12 8 9 11 10 6 3 2 4 11
10 8 6 8 8 9 3 2 5 4 1 8 4 2 6 3 3 2 3 1 1 22 29 20 14 20 47 45 47 48 53 51 44 43 41 37 32 25 23 22 19 17 16 15 12 10 8 7 7 5 4 6 7 10
9 9 10 6 6 5 7 4 5 7 2 7 2 2 5 5 5 2 2 2 10 10 20 32 18 16 44 57 56 47 44 44 45 44 43 41 38 34 31 26 21 17 16 18 15 10 7 5 4 1 4 7 8 10
8 10 6 8 5 3 3 9 4 3 7 6 1 4 7 13 12 8 6 8 8 10 22 31 42 24 51 57 59 53 32 21 22 21 36 38 37 39 37 29 21 18 17 17 16 16 13 8 3 3 6 7 8 9
7 13 7 5 3 4 6 3 6 10 8 7 7 8 9 6 6 11 10 10 9 16 25 28 42 53 49 49 50 38 33 31 27 16 12 19 30 35 32 26 22 20 17 15 14 12 8 2 4 6 5 6 7 7
8 9 7 4 4 8 8 6 6 6 7 7 4 7 6 5 6 9 15 16 17 20 20 36 49 42 44 51 46 36 27 30 28 22 20 22 27 28 26 25 22 16 11 8 5 4 4 7 7 7 7 7 6 7
6 7 6 7 4 3 2 3 6 6 7 7 9 10 7 6 8 8 12 21 33 26 15 24 28 38 41 39 33 24 25 30 27 22 17 16 17 19 17 17 16 12 10 8 8 8 8 8 8 7 7 8 8 8
Wind_Direction_850mb
319 322 324 323 324 329 329 329 325 322 304 311 295 287 301 289 257 266 273 260 231 236 264 268 279 236 205 189 162 210 92 7 64 111 148 241 236 353 318 226 179 162 174 170 184 220 254 121 108 181 160 142 161 133
315 317 318 319 314 316 327 329 325 323 317 295 285 286 277 277 277 265 263 251 233 241 255 258 244 255 250 236 228 203 144 118 128 111 330 83 317 317 245 292 119 213 185 162 195 219 288 36 118 124 137 148 142 152
312 310 315 310 310 306 311 317 318 320 313 299 295 282 288 270 266 261 281 253 241 252 271 273 284 162 282 241 223 171 171 143 122 101 111 74 275 304 237 241 305 201 216 186 139 175 99 67 76 137 158 143 143 130
306 307 314 312 302 297 300 302 309 314 313 294 284 282 274 267 261 261 267 273 194 190 335 263 130 153 178 200 203 209 200 155 143 142 106 191 243 185 271 301 198 223 227 151 194 156 156 218 246 159 142 144 133 104
307 303 312 312 313 294 285 286 300 306 307 301 285 282 270 258 249 260 257 246 205 210 258 298 298 336 218 169 176 196 180 146 133 121 137 226 245 228 243 322 248 209 190 156 210 169 187 217 182 166 155 149 131 100
312 308 310 310 311 306 292 275 283 298 299 297 277 263 265 252 249 239 259 246 223 207 272 313 294 358 175 191 187 180 190 167 146 159 208 257 235 149 267 246 255 246 209 190 182 185 190 162 156 163 150 141 137 127
313 315 311 309 313 313 299 278 275 288 295 290 277 261 259 242 208 206 241 287 205 192 213 294 290 112 171 161 167 179 189 155 150 183 226 254 276 139 279 233 240 193 138 125 158 163 128 144 147 146 133 132 134 118
318 315 314 307 308 307 303 277 272 285 290 282 279 268 266 233 235 241 254 259 176 160 177 221 261 159 172 141 122 139 131 169 194 218 215 231 263 196 243 232 238 212 165 139 168 176 163 145 140 127 115 138 131 110
317 315 316 310 310 324 306 273 279 277 277 275 253 259 210 188 211 218 235 171 172 158 203 204 186 213 172 126 124 151 173 199 213 217 229 177 230 222 228 240 237 209 197 149 144 139 140 140 130 116 126 120 111 100
317 312 309 307 305 314 307 276 277 281 280 258 191 197 206 168 179 151 151 165 189 226 221 237 199 162 171 142 147 158 181 221 227 215 188 210 254 245 248 221 153 160 149 157 137 134 144 137 128 118 119 109 99 92
313 312 314 301 302 306 285 272 259 292 186 204 192 194 141 149 155 167 122 161 164 239 212 222 197 127 144 129 130 204 184 261 242 206 200 227 260 234 214 182 171 166 174 163 168 160 158 145 132 124 113 101 95 78
314 316 316 310 313 306 282 266 271 187 201 187 165 114 145 174 158 180 175 171 202 230 187 166 187 136 117 132 137 171 254 195 258 159 222 248 260 158 157 151 148 166 156 145 145 141 136 130 131 128 122 105 89 78
319 320 308 317 318 298 250 235 226 190 205 180 172 132 152 166 201 215 178 199 222 193 164 151 115 142 133 160 134 191 231 243 281 214 235 251 157 147 148 159 157 148 144 136 133 130 130 134 129 128 138 124 98 84
327 321 309 305 313 303 227 197 166 178 159 190 159 143 224 176 235 210 197 199 190 161 153 145 107 120 121 136 168 238 228 276 228 225 223 168 155 150 151 152 146 145 145 138 133 132 128 125 126 128 116 124 138 111
328 334 341 342 291 175 158 175 174 189 257 228 191 209 213 249 262 299 257 136 114 150 140 101 84 104 115 221 196 244 246 232 247 225 184 153 155 160 153 152 148 148 147 142 140 139 140 140 128 116 105 103 114 132
346 19 19 330 323 198 151 168 168 179 265 265 243 283 279 244 322 182 173 136 144 146 121 120 133 181 197 204 207 217 247 244 224 190 149 159 154 159 160 153 153 150 148 145 143 140 138 136 149 127 105 94 91 111
19 6 31 44 91 113 153 134 131 234 285 268 259 269 274 282 269 337 176 168 172 149 171 152 202 213 168 221 221 221 224 228 154 138 145 154 162 157 156 150 146 148 148 146 141 138 133 129 149 152 115 93 92 100
317 355 34 76 126 153 175 176 354 301 272 265 261 302 234 264 232 170 163 177 159 165 156 243 297 211 232 237 217 252 79 117 140 147 156 156 153 154 153 153 155 154 148 145 143 138 137 142 138 140 120 107 102 90
277 281 318 146 192 222 256 258 282 286 270 287 283 290 267 315 217 176 167 173 186 185 231 241 250 235 269 333 284 172 139 131 123 133 142 149 148 150 151 149 150 149 149 149 147 142 139 131 120 137 136 111 89 90
260 245 206 209 197 257 318 266 237 265 271 294 282 282 263 251 181 173 170 179 195 178 229 240 234 339 257 293 247 182 156 149 145 138 145 157 160 156 151 147 144 147 152 155 155 160 155 138 129 144 128 87 83 88
69 68 184 185 217 259 263 266 261 247 283 292 294 281 8 192 171 177 187 190 203 222 236 238 270 305 302 164 180 176 165 164 158 157 160 158 155 152 153 154 154 167 166 160 153 158 158 134 129 148 134 104 91 74
91 169 172 202 232 256 264 229 258 290 248 250 289 276 225 203 193 199 189 192 233 243 227 227 185 168 129 136 168 179 174 173 167 158 155 154 157 159 161 164 165 164 169 169 162 161 153 134 128 153 135 119 96 67
155 195 177 202 240 243 264 231 252 255 259 332 334 328 275 219 179 155 235 225 250 256 248 226 209 180 190 229 178 181 177 173 165 163 163 159 155 154 157 164 168 168 166 161 168 159 149 142 134 157 147 126 55 29
169 226 234 230 221 266 249 226 233 260 276 220 259 285 333 335 169 236 253 251 257 258 226 206 204 175 205 171 172 173 172 173 168 165 167 166 171 175 182 188 190 191 188 175 168 160 154 153 138 139 150 103 61 24
269 233 230 267 230 250 253 187 309 281 254 207 245 181 197 178 200 227 244 283 319 200 185 193 177 218 189 182 180 175 175 180 176 173 172 178 180 174 163 168 169 175 177 172 171 173 171 166 157 141 109 39 16 7
253 218 202 234 232 199 223 245 230 254 278 275 268 119 161 211 236 232 269 281 274 185 164 160 196 194 183 182 178 180 186 190 186 184 181 186 183 176 172 170 169 173 183 206 200 189 184 187 186 173 161 20 4 352
260 267 229 233 255 262 233 229 241 223 244 242 223 138 164 236 240 213 305 351 229 204 194 186 187 189 173 169 172 174 178 182 183 177 173 173 178 183 195 192 187 186 185 200 221 230 221 210 204 205 247 278 336 348
251 278 211 197 209 229 147 275 256 236 13 8 336 224 308 303 248 278 345 254 244 168 183 210 236 207 186 185 183 180 174 176 179 174 168 171 173 176 179 182 178 175 182 202 221 224 224 227 217 217 282 318 336 343
247 249 224 252 207 217 218 263 356 57 184 169 227 261 264 300 284 233 227 163 207 224 214 191 201 178 184 180 180 183 185 183 177 174 180 181 181 179 181 185 184 181 193 197 194 202 197 191 197 243 323 321 333 344
250 214 215 188 183 220 32 4 38 109 48 33 300 242 293 314 275 254 244 218 223 243 209 194 188 181 180 180 174 172 168 190 205 204 198 200 203 192 186 188 196 200 195 194 192 178 173 173 168 337 332 329 332 336
272 188 172 167 192 165 168 139 285 295 303 328 286 281 296 293 289 240 242 236 238 202 200 192 182 179 182 175 174 171 192 210 199 191 206 207 194 187 187 189 189 182 174 172 164 156 155 166 316 313 311 315 319 321
211 188 185 146 196 182 187 227 264 269 294 332 305 287 255 242 282 236 228 236 217 170 153 177 179 176 180 176 185 201 204 194 184 176 158 152 160 171 178 178 176 174 172 172 179 202 240 290 304 306 303 309 321 331
119 120 121 121 135 184 232 281 329 296 270 265 274 265 249 226 252 229 230 195 173 181 208 208 191 167 181 191 199 198 202 195 186 182 183 181 171 168 171 177 182 188 194 211 221 235 256 275 289 303 316 321 320 324